Location: *
(36.7944°S, 61.0949°E)
Time: 12:43:47
(UTC+00:00)

Daily predictions for brighter satellites

Satellite Brightness Start Highest point End
(mag) Time Altitude Azimuth Time Altitude Azimuth Time Altitude Azimuth
Cosmos 2098 Rocket 4.3 13:17:34 10° S 13:25:05 80° E 13:31:36 10° N
USA 116 4.1 13:22:23 10° NE 13:26:22 42° ESE 13:29:58 10° S
SL-16 R/B 4.0 13:25:08 10° SE 13:26:24 11° SE 13:27:40 10° ESE
Cosmos 1626 2.1 13:23:48 10° S 13:27:36 84° E 13:31:20 10° N
Meteor 1-24 Rocket 3.8 13:22:13 10° S 13:27:49 90° W 13:33:34 10° N
Cosmos 1758 3.4 13:26:28 10° N 13:30:22 54° E 13:34:19 10° SSE
SL-14 R/B 3.2 13:27:17 10° S 13:31:15 86° E 13:35:10 10° N
Cosmos 2219 3.4 13:26:24 10° N 13:31:57 57° ENE 13:37:36 10° SSE
Cosmos 2266 Rocket 4.3 13:28:46 10° S 13:34:52 74° W 13:40:54 10° N
Timation 2 Rocket 4.2 13:29:09 10° NNW 13:35:26 83° WSW 13:42:06 10° SSE
ASTEX 1 4.0 13:31:22 10° SSE 13:36:04 38° E 13:40:43 10° NNE
NOAA 6 4.1 13:32:07 10° SSE 13:37:21 65° ENE 13:42:31 10° N
MOS 1-B 4.4 13:32:05 10° SSE 13:37:57 79° ENE 13:43:45 10° N
YAOGAN 6 3.7 13:36:03 10° SE 13:39:00 24° E 13:41:56 10° NNE
Cosmos 1470 2.8 13:35:24 10° N 13:39:24 89° NW 13:43:27 10° S
Aureole 3 Rocket 3.9 13:34:55 10° NNE 13:39:34 33° E 13:43:10 10° SSE
Lacrosse 5 3.1 13:35:51 10° SSW 13:39:55 23° SE 13:43:51 10° E
FALCON 9 DEB 3.2 13:40:57 10° NW 13:44:26 83° SW 13:47:40 12° SE
Cosmos 1892 Rocket 4.2 13:40:11 10° SSW 13:44:32 61° W 13:48:49 10° N
Lacrosse 4 Rocket 2.3 13:43:51 10° NW 13:47:48 47° WSW 13:51:54 10° SSE
Cosmos 1455 Rocket 4.0 13:44:28 10° NNW 13:48:50 51° W 13:53:15 10° S
DMSP B5D1-3 4.5 13:45:04 10° NNE 13:50:13 78° ESE 13:55:25 10° S
Cosmos 1626 Rocket 3.7 13:51:34 10° S 13:55:58 55° E 14:00:20 10° NNE
NOSS 0 Rocket 3.9 13:52:35 10° SSW 13:58:50 79° ESE 14:05:00 10° NNE
H-2A R/B 3.2 13:59:38 10° S 14:03:26 62° WSW 14:07:08 10° NNW
Envisat 3.0 13:58:18 10° SSE 14:03:26 66° E 14:08:31 10° N
Cosmos 1980 3.7 13:58:21 10° SSW 14:04:01 62° ESE 14:09:38 10° NNE
NOAA 12 4.3 13:59:04 10° SSE 14:04:13 48° E 14:09:21 10° N
Helios 1A Rocket 3.9 14:05:08 19° SE 14:07:15 28° E 14:10:53 10° NNE
Cosmos 2219 Rocket 3.6 14:02:01 10° SW 14:07:19 42° WNW 14:12:33 10° N
Cosmos 2297 Rocket 2.3 14:02:53 10° NNW 14:08:35 84° WSW 14:14:19 10° SSE
Meteor 2-21 Rocket 4.4 14:02:44 10° S 14:09:02 78° E 14:15:17 10° N
Cosmos 2228 4.0 14:06:04 10° NE 14:09:43 26° E 14:10:50 23° ESE
USA 215 3.3 14:03:30 10° ENE 14:09:55 60° SE 14:16:22 10° SW
Cosmos 1937 Rocket 4.4 14:05:36 10° NNE 14:09:55 27° E 14:11:46 22° ESE
Exosat Rocket 4.5 14:05:58 10° N 14:12:23 73° ENE 14:21:47 10° SSE
Cosmos 1953 2.3 14:09:14 10° N 14:13:20 88° W 14:17:29 10° S
Cosmos 44 Rocket 4.4 14:15:31 10° S 14:19:22 24° SE 14:19:22 24° SE
BREEZE-M DEB (TANK) 4.2 14:14:03 10° SW 14:19:32 25° S 14:20:34 22° SSE
Cosmos 2237 Rocket 2.1 14:14:05 10° SSW 14:19:49 78° ESE 14:25:30 10° NNE
Cosmos 1908 3.5 14:16:21 10° NNE 14:20:04 43° E 14:21:41 28° SE
CORIOLIS 4.1 14:18:13 10° SSE 14:23:39 75° ENE 14:29:00 10° N
SJ 16-02 1.3 14:20:40 10° NNW 14:25:02 87° ENE 14:28:40 15° SSE
Okean O Rocket 2.4 14:21:05 10° S 14:25:28 53° WSW 14:29:47 10° NNW
Meteor 1-16 Rocket 4.3 14:21:44 10° N 14:27:37 82° E 14:33:39 10° S
ARGOS Delta rocket 3.6 14:24:29 10° SSE 14:28:59 85° E 14:33:30 10° N
Meteor 2-16 Rocket 4.5 14:23:54 10° S 14:30:07 86° W 14:36:14 10° N
Meteor 2-8 Rocket 4.4 14:28:11 10° N 14:34:16 90° E 14:40:25 10° S
Feng Yun 1-1 Rocket 4.4 14:28:36 10° SSE 14:34:31 64° ENE 14:40:24 10° N
Shenzhou-11 Module 3.6 14:34:17 10° WSW 14:35:47 22° SW 14:35:47 22° SW
Cosmos 2315 Rocket 4.4 14:32:06 10° NNE 14:37:57 40° E 14:40:35 28° SE
SL-08 ROCKET BODY 4.2 14:34:02 10° S 14:39:57 71° E 14:45:50 10° NNE
Cosmos 1553 Rocket 4.4 14:34:38 10° NNW 14:40:53 67° W 14:47:20 10° S
Cosmos 1726 4.0 14:40:12 10° NW 14:43:29 30° WSW 14:46:48 10° SSW
Cosmos 2263 Rocket 4.2 14:40:48 10° NE 14:41:24 12° NE 14:41:24 12° NE
FengYun 1-2 T 4.2 14:41:43 10° SSE 14:47:29 79° ENE 14:53:09 10° N
CZ-2C R/B 2.6 14:42:46 10° NNE 14:47:50 56° ESE 14:53:01 10° S
SL-8 R/B 4.4 14:43:27 10° WSW 14:48:12 54° NW 14:51:12 21° NNE
Cosmos 2112 Rocket 4.0 14:45:29 10° S 14:50:45 61° ESE 14:53:07 32° NE
Cosmos 1745 Rocket 3.9 14:44:55 10° S 14:51:09 86° E 14:57:19 10° N
SMAP 4.3 14:47:02 10° S 14:51:27 40° WSW 14:55:48 10° NW
SL-4 R/B 4.1 14:48:32 10° WSW 14:52:27 23° SSW 14:53:58 20° S
Cosmos 2227 Rocket 3.3 14:48:16 10° NW 14:53:34 41° WSW 14:58:54 10° S
Cosmos 1939 Rocket 4.3 14:56:10 27° NNE 14:56:10 27° NNE 14:58:13 10° N
S3M 4.2 14:48:12 10° NNW 14:54:29 72° W 15:00:46 10° S
Cosmos 1606 Rocket 3.5 14:51:28 10° N 14:55:55 89° SW 14:57:00 51° S
CZ-4 R/B 3.8 15:00:41 13° N 15:00:41 13° N 15:01:07 10° N
Cosmos 2082 4.0 14:52:09 10° NNW 14:57:48 68° WSW 15:01:24 24° SSE
Cosmos 858 Rocket 4.3 14:53:18 10° NNW 14:58:31 81° ENE 14:59:51 52° SSE
Okean-O 3.3 15:01:18 43° NNE 15:01:18 43° NNE 15:04:27 10° N
Cosmos 990 Rocket 4.5 14:58:50 10° NNW 15:03:54 58° WSW 15:06:50 25° S
Cosmos 883 Rocket 4.4 14:58:36 10° N 15:04:58 84° E 15:11:21 10° S
USA 229 DEB 4.4 15:01:58 10° N 15:08:29 40° ENE 15:08:29 40° ENE
USA 229 4.4 15:02:04 10° N 15:08:33 40° ENE 15:08:33 40° ENE
SL-16 R/B 2.0 15:05:46 10° SSW 15:11:30 75° ESE 15:11:33 75° ESE
Cosmos 1680 Rocket 3.8 15:10:41 10° SSW 15:15:57 66° WNW 15:21:13 10° N
Cosmos 1898 Rocket 4.5 15:15:04 10° NW 15:20:01 44° WSW 15:22:26 27° SSW
Cosmos 158 Rocket 4.3 15:15:35 10° SSW 15:20:37 61° WNW 15:22:48 32° N
DMSP B5D2-2 4.3 15:16:18 10° N 15:21:31 70° WNW 15:26:50 10° SSW
Cosmos 1726 Rocket 4.3 15:18:50 10° NNW 15:22:37 51° WNW 15:22:37 51° WNW
Lacrosse 5 2.1 15:18:10 10° SW 15:23:07 67° WNW 15:23:07 67° WNW
Cosmos 1709 Rocket 4.0 15:28:39 10° S 15:34:53 78° W 15:41:08 10° N
GEOS 3 Rocket 4.2 15:41:23 53° W 15:41:23 53° W 15:46:00 10° SW
Cosmos 2227 Rocket 4.3 23:54:08 18° NE 23:54:08 18° NE 23:55:34 10° NNE
